Regional Weather Roundup
Issued by NWS Wakefield, VA

Home | Current Version | Previous Version | Text Only | Print | Product List | Glossary On
Versions: 1 2 3 4 5 6 7 8 9 10 11 12 13 14 15 16 17 18 19 20 21 22 23 24 25 26 27 28 29 30 31 32 33 34 35 36 37 38 39 40 41 42 43 44 45 46 47 48 49 50
000
ASUS41 KAKQ 201310
RWRAKQ

REGIONAL WEATHER ROUNDUP
NATIONAL WEATHER SERVICE WAKEFIELD VA
800 AM EST SAT DEC 20 2014

Note: "fair" indicates few or no clouds below 12,000 feet with no
significant weather and/or obstructions to visibility. * = Denotes
station may not report precipitation (e.g., rain,snow,etc.),
thunder or fog.

VAZ042-051-052>054-056-201400-
NORTHERN VIRGINIA

CITY           SKY/WX    TMP DP  RH WIND       PRES   REMARKS
WASH NATIONAL  MOCLDY    32  20  61 N7        30.32R
DULLES         CLOUDY    26  20  77 N6        30.29F
FORT BELVOIR   CLOUDY    23  20  91 SW2       30.30F
QUANTICO       CLOUDY    26  22  84 NW6       30.34R
FREDERICKSBRG* CLOUDY    28  25  89 W5        30.33R
STAFFORD*      CLOUDY    22  22 100 CALM      30.36R
WARRENTON      CLOUDY    24  24 100 CALM      30.31R
CULPEPER*      CLOUDY    25  21  86 CALM      30.32R
MANASSAS*      CLEAR     21  21 100 CALM      30.31R
LEESBURG*      CLOUDY    30  25  80 N3        30.30F
WINCHESTER     CLOUDY    25  19  80 CALM      30.28S
FRONT ROYAL*   CLOUDY    23  21  93 S3        30.29R
LURAY*         CLOUDY    27  27 100 CALM      30.28S
$$

VAZ048-049-060>072-079>083-201400-
CENTRAL AND SOUTH CENTRAL VIRGINIA

CITY           SKY/WX    TMP DP  RH WIND       PRES   REMARKS
RICHMOND       CLOUDY    32  23  69 NW5       30.32R
CHESTERFIELD*  CLOUDY    30  16  55 N3        30.32R
PETERSBURG*    CLOUDY    32  26  77 N3        30.33R
HANOVER        CLOUDY    27  23  85 NW3       30.34R
TAPPAHANNOCK*  CLOUDY    26  22  84 CALM      30.31F
QUINTON*       CLOUDY    31  22  70 CALM      30.32R
CHARLOTTSVILLE CLOUDY    28  23  81 S7        30.30R
GORDONSVILLE*  CLOUDY    25  23  91 CALM      30.30R
ORANGE*        CLOUDY    27  25  93 CALM      30.33R
LOUISA*        CLOUDY    28  25  86 CALM      30.30R
BUMPASS*       CLOUDY    27  23  85 CALM      30.32R
FARMVILLE*     CLOUDY    29  26  87 CALM      30.29S
CREWE*         PTSUNNY   28  26  90 CALM      30.29R
FORT PICKETT*  PTSUNNY   30  25  80 CALM      30.30R
CHASE CITY*    PTSUNNY   32  29  89 CALM      30.30S
CLARKSVILLE*   PTSUNNY   32  27  80 CALM      30.29F
SOUTH HILL*    MOCLDY    31  24  75 CALM      30.36R
LAWRENCEVILLE* PTSUNNY   31  25  76 CALM      30.31R
EMPORIA*       CLOUDY    32  27  80 CALM      30.33R
$$

VAZ088>098-201400-
SOUTHEAST VIRGINIA

CITY           SKY/WX    TMP DP  RH WIND       PRES   REMARKS
NORFOLK        CLOUDY    38  28  67 NE10      30.28S
VIRGINIA BEACH CLOUDY    37  28  70 N6        30.27F
NORFOLK NAVAL  CLOUDY    39  29  67 N7        30.30S
WEST POINT*    CLOUDY    31  27  84 CALM      30.32F
SALUDA*        FAIR      32  25  73 N5        30.30F
NEWPORT NEWS   CLOUDY    35  25  66 N5        30.29F
LANGLEY AFB    CLOUDY    34  26  74 N8        30.30S
FORT EUSTIS    CLOUDY    34  25  70 N2        30.28S
WILLIAMSBURG*  CLOUDY    34  28  80 CALM      30.31S
HR EXEC AP*    CLOUDY    30  27  86 CALM      30.32R
FRANKLIN*      CLOUDY    30  27  86 CALM      30.32R
WAKEFIELD      CLOUDY    32  24  72 CALM      30.31R
$$

VAZ020-022-025-037-045-201400-
WEST CENTRAL AND SOUTHWEST VIRGINIA

CITY           SKY/WX    TMP DP  RH WIND       PRES   REMARKS
STAUNTON*      CLOUDY    24  21  86 CALM      30.28S
WAYNESBORO*    CLOUDY    24  21  89 CALM      30.24S
HOT SPRINGS VA CLOUDY    26  19  74 SW9       30.09S
LYNCHBURG      CLOUDY    28  25  88 CALM      30.29R
DANVILLE       CLOUDY    33  24  69 NE5       30.30R
SOUTH BOSTON*  CLOUDY    31  26  80 CALM      30.30S
MARTINSVILLE   CLOUDY    33  26  74 NE3       30.29S
ROANOKE        CLOUDY    31  23  72 SE5       30.28R
BLACKSBURG     FLURRIES  28  23  80 CALM      30.23S
DUBLIN*        LGT SNOW  30  28  92 CALM      30.22S
MARION*        CLOUDY    32  29  88 NE6       30.20S
HILLSVILLE*    CLOUDY    31  26  80 S3        30.17F
RICHLANDS*     FLURRIES  31  29  91 CALM      30.16R
WISE*          CLOUDY    32  32 100 CALM      30.16R
ABINGDON*      CLOUDY    35  32  89 NE5       30.17S
$$

MDZ021>025-VAZ099-100-201400-
SOUTHERN MARYLAND AND THE DELMARVA PENINSULA

CITY           SKY/WX    TMP DP  RH WIND       PRES   REMARKS
PATUXENT RIVER MOCLDY    31  21  66 N9        30.30S
BAY BRIDGE APT   N/A     32  23  69 NW6       30.31R
LEONARDTOWN    MOCLDY    28  21  74 CALM      30.32R
DOVER          CLEAR     27  23  85 NW6       30.27R
GEORGETOWN     CLEAR     23  20  88 CALM      30.30R
EASTON         CLEAR     30  27  86 CALM      30.34R
CAMBRIDGE      CLEAR     32  27  80 N5        30.30S
SALISBURY      CLEAR     28  22  78 CALM      30.30R
OCEAN CITY     CLEAR     27  22  81 NW5       30.30R
WALLOPS ISLAND CLEAR     27  23  85 NW5       30.32R
ACCOMACK*      MOCLDY    28  27  93 CALM      30.31R
$$

NCZ012>017-030>032-201400-
NORTH CENTRAL AND EASTERN NORTH CAROLINA

CITY           SKY/WX    TMP DP  RH WIND       PRES   REMARKS
ROANOKE RAPIDS PTSUNNY   32  27  80 CALM      30.31R
RALEIGH        CLOUDY    35  25  66 NE6       30.29S
ELIZABETH CITY CLOUDY    39  30  70 NW6       30.30R
AHOSKIE*       MOCLDY    31  27  84 CALM      30.32R
EDENTON*         N/A     33  30  87 CALM      30.30R
CURRITUCK*     CLOUDY    34  29  82 CALM      30.30R
KILL DEVIL HLS CLOUDY    40  33  77 NW3       30.27R
MANTEO         CLOUDY    40  34  77 N5        30.28R
CAPE HATTERAS  CLOUDY    43  35  73 VRB3      30.27R
TARBORO*       CLOUDY    34  28  80 CALM      30.32R
GOLDSBORO      CLOUDY    37  36  97 NE5       30.26S
WASHINGTON     CLOUDY    34  31  89 N3        30.30R
GREENVILLE     CLOUDY    34  32  93 CALM      30.31R
NEW BERN       CLOUDY    40  35  83 NE7       30.28S
WILMINGTON     LGT RAIN  42  40  92 NE8       30.22F
$$

VAZ048-201400-
ELSEWHERE

CITY           SKY/WX    TMP DP  RH WIND       PRES   REMARKS
HARRISBURG PA  CLOUDY    30  19  63 NW7       30.31R
BALTIMORE      MOCLDY    27  20  75 NW3       30.30R
ANNAPOLIS      PTCLDY    32  23  69 NW8       30.31R
ANDREWS AFB    CLEAR     25  20  82 N5        30.30R
PHILADELPHIA   CLOUDY    33  21  61 NW8       30.30R
HENDERSON NC   CLOUDY    32  24  72 NE5       30.28F
GREENSBORO     CLOUDY    34  27  75 NE7       30.24S
ROCKY MOUNT    CLOUDY    34  28  79 NE6       30.30R
$$

VAZ100-201400-
MARINE

STATION/POSITION TIME  TEMP    WIND        PRES    WAVE   SWELL
                       AIR SEA DIR/SP/G            HT/PER HT/PER
                 (UTC) (F)     (DEG/KT/KT) (MB)    (FT/S) (FT/S)
CAPE MAY NJ      1300   32 42   20/  3/  5 1025.0R
LEWES DE         1300   30 42  280/  8/  9 1025.4R
15NM E FENWICK I 1300   36 46              1024.9R   2/ 4
OCEAN-CITY-INLET 1300   30 44  340/  5/  6 1025.6R
WACHAPREAGUE VA  1300   31 41  330/  3/  5 1026.1S
THOMAS POINT MD  1300   30 40  310/  7/  8 1027.2R
COVE POINT MD    1300   32     350/ 10/ 12 1026.0S
SOLOMONS ISLAND  1300      42                N/A
BISHOPS HEAD MD  1300   30 35  330/  5/  5 1025.6R
CAMBRIDGE MD     1300   33 40  310/  5/  8 1026.0R
LEWISETTA VA     1300   31 40  320/  4/  5 1025.9F
RAPPAHANNOCK LGT 1300          350/  8/ 10 1026.6R
YORK RVR RNG VA  1300   36      10/ 13/ 15 1024.9F
YORKTOWN VA      1300   33 45   10/  9/ 11 1025.4F
DOMINION TERM VA 1300   35     360/  7/ 10 1025.6S
KIPTOPEKE VA     1300      49   40/  5/  7   N/A
CHES BAY BRIDGE  1300   38 45   10/ 10/ 13 1024.8S
CAPE HENRY VA    1300   37      20/ 10/ 12 1024.0S
CHESAPEAKE LGHT  1200   39     350/  9/ 10 1026.2R
WILLOUBY STN VA  1300   35     360/ 10/ 12 1025.8R
S CRANEY ISL VA  1300          350/  6/  9 1025.7R
CAPE HENRY BUOY  1200      48                N/A     2/ 5
CAPE CHARLES BUO 1300      48                N/A     2/ 4   2/ 5
64NM E OF VA BCH 1300   43 54  360/ 12/ 14 1023.7F   2/ 5   2/ 5
DUCK PIER NC     1300   40 46  320/  9/ 11 1024.3R
44100 DUCK FRF   1300      52                N/A     3/ 5
44056 DUCK FRF   1300      47                N/A     2/ 5
OREGON INLET NC  1300   42 49  340/  4/  6 1025.0R
HATTERAS NC      1300   44 51   20/  9/ 11 1025.3R
DIAMOND SHLS NC  1300   48                 1025.0R   3/ 8
CAPE LOOKOUT NC  1200   46      10/ 10/ 11 1024.1R
$$



USA.gov is the U.S. government's official web portal to all federal, state and local government web resources and services.